Tracking 23610 objects as of 20-Sep-2021
HD Live streaming from Space Station
objects crossing your sky now

STARLINK-2480

Track STARLINK-2480 now!
10-day predictions
STARLINK-2480 is classified as:


NORAD ID: 48137
Int'l Code: 2021-027AX
Perigee: 554.0 km
Apogee: 554.7 km
Inclination: 53.0 °
Period: 95.6 minutes
Semi major axis: 6925 km
RCS: Unknown
Launch date: April 7, 2021
Source: United States (US)
Launch site: AIR FORCE EASTERN TEST RANGE (AFETR)
aabbcc
Your satellite tracking list
Your tracking list is empty




NASA's NSSDC Master Catalog

Two Line Element Set (TLE):
1 48137U 21027AX  21263.08750095 -.00000859  00000-0 -38836-4 0  9999
2 48137  53.0464 276.1984 0000544  68.8123 291.2924 15.06395525 26373
Source of the keplerian elements: AFSPC